This is the latest recevied weather packets stored in our database for station/object KD4EED. If no packets are shown the sender has not sent any weather packets the latest 10 day(s).
| Time | Temp. | Humidity | Pressure | Rain* | Wind** | Luminosity | Snow |
|---|---|---|---|---|---|---|---|
| 1777830359 | 17.78° C | 64% | 1012.4 hPa | - | - | 265 W/m² | - |
| 1777830056 | 17.22° C | 66% | 1012.4 hPa | - | - | 268 W/m² | - |
| 1777829751 | 17.22° C | 66% | 1012.3 hPa | - | - | 250 W/m² | - |
| 1777829447 | 17.22° C | 68% | 1012.3 hPa | - | - | 190 W/m² | - |
| 1777829145 | 17.22° C | 68% | 1012.3 hPa | - | - | 161 W/m² | - |
| 1777828842 | 17.22° C | 67% | 1012.3 hPa | - | - | 160 W/m² | - |
| 1777828538 | 17.22° C | 67% | 1012.2 hPa | - | - | 172 W/m² | - |
| 1777828236 | 16.67° C | 67% | 1012.1 hPa | - | - | 154 W/m² | - |
| 1777827932 | 16.67° C | 68% | 1012 hPa | - | - | 138 W/m² | - |
| 1777827630 | 16.67° C | 68% | 1012.1 hPa | - | - | 132 W/m² | - |
| 1777827327 | 16.67° C | 68% | 1012.1 hPa | - | - | 126 W/m² | - |
| 1777827023 | 16.67° C | 68% | 1011.8 hPa | - | - | 129 W/m² | - |
| 1777826720 | 16.67° C | 69% | 1011.9 hPa | - | - | 118 W/m² | - |
| 1777826417 | 16.67° C | 69% | 1011.8 hPa | - | - | 106 W/m² | - |
| 1777826114 | 16.11° C | 70% | 1011.8 hPa | - | - | 93 W/m² | - |
| 1777825811 | 16.11° C | 70% | 1011.9 hPa | - | - | 84 W/m² | - |
| 1777825508 | 16.11° C | 69% | 1011.9 hPa | - | - | 66 W/m² | - |
| 1777825206 | 16.67° C | 70% | 1011.9 hPa | - | - | 65 W/m² | - |
| 1777824902 | 16.67° C | 70% | 1011.9 hPa | - | - | 71 W/m² | - |
| 1777824598 | 16.11° C | 71% | 1011.7 hPa | - | - | 80 W/m² | - |
| 1777824295 | 16.11° C | 71% | 1011.6 hPa | - | - | 84 W/m² | - |
| 1777823990 | 16.11° C | 71% | 1011.8 hPa | - | - | 64 W/m² | - |
| 1777823688 | 16.11° C | 71% | 1011.6 hPa | - | - | 75 W/m² | - |
| 1777823384 | 16.11° C | 71% | 1011.6 hPa | - | - | 73 W/m² | - |
| 1777823083 | 16.11° C | 72% | 1011.5 hPa | - | - | 89 W/m² | - |
* Rain since midnight (hover to see other rain measurements)
** Current wind speed in m/s (hover to see current wind gust speed)